Time,TemperatureF,DewpointF,PressureIn,WindDirection,WindDirectionDegrees,WindSpeedMPH,WindSpeedGustMPH,Humidity,HourlyPrecipIn,Conditions,Clouds,dailyrainin,SoftwareType,DateUTC
2013-05-14 00:01:00,50.2,28.0,30.10,North,353,3.0,3.0,42,0.00,,,0.00,meteohub,2013-05-14 04:01:00,
2013-05-14 00:02:00,50.2,28.0,30.10,NNW,336,4.0,4.0,42,0.00,,,0.00,meteohub,2013-05-14 04:02:00,
2013-05-14 00:07:00,50.5,28.2,30.10,North,10,2.0,4.0,42,0.00,,,0.00,meteohub,2013-05-14 04:07:00,
2013-05-14 00:12:00,50.5,28.9,30.10,NW,314,1.0,4.0,43,0.00,,,0.00,meteohub,2013-05-14 04:12:00,
2013-05-14 00:17:00,50.5,28.2,30.10,North,357,4.0,4.0,42,0.00,,,0.00,meteohub,2013-05-14 04:17:00,
2013-05-14 00:22:00,50.5,28.2,30.10,NNW,338,1.0,4.0,42,0.00,,,0.00,meteohub,2013-05-14 04:22:00,
2013-05-14 00:27:00,50.4,28.8,30.11,WNW,300,0.0,4.0,43,0.00,,,0.00,meteohub,2013-05-14 04:27:00,
2013-05-14 00:32:00,50.2,28.6,30.10,NNW,342,0.0,4.0,43,0.00,,,0.00,meteohub,2013-05-14 04:32:00,
2013-05-14 00:37:00,50.0,28.9,30.10,NNW,328,0.0,4.0,44,0.00,,,0.00,meteohub,2013-05-14 04:37:00,
2013-05-14 00:42:00,49.8,28.8,30.10,NNW,336,0.0,2.0,44,0.00,,,0.00,meteohub,2013-05-14 04:42:00,
2013-05-14 00:47:00,49.6,28.6,30.11,NW,311,1.0,3.0,44,0.00,,,0.00,meteohub,2013-05-14 04:47:00,
2013-05-14 00:52:00,49.6,29.1,30.11,NW,310,0.0,3.0,45,0.00,,,0.00,meteohub,2013-05-14 04:52:00,
2013-05-14 00:57:00,49.3,30.9,30.11,NW,311,0.0,3.0,49,0.00,,,0.00,meteohub,2013-05-14 04:57:00,
2013-05-14 01:02:00,49.1,29.1,30.11,NW,311,1.0,2.0,46,0.00,,,0.00,meteohub,2013-05-14 05:02:00,
2013-05-14 01:07:00,49.1,29.1,30.11,NNW,345,1.0,4.0,46,0.00,,,0.00,meteohub,2013-05-14 05:07:00,
2013-05-14 01:12:00,48.9,29.1,30.11,NNW,343,2.0,4.0,46,0.00,,,0.00,meteohub,2013-05-14 05:12:00,
2013-05-14 01:17:00,48.9,29.1,30.11,WNW,301,1.0,4.0,46,0.00,,,0.00,meteohub,2013-05-14 05:17:00,
2013-05-14 01:22:00,48.9,29.7,30.12,WNW,290,2.0,3.0,47,0.00,,,0.00,meteohub,2013-05-14 05:22:00,
2013-05-14 01:27:00,48.9,30.0,30.11,NNW,340,3.0,3.0,48,0.00,,,0.00,meteohub,2013-05-14 05:27:00,
2013-05-14 01:32:00,48.7,29.8,30.11,NW,314,1.0,4.0,48,0.00,,,0.00,meteohub,2013-05-14 05:32:00,
2013-05-14 01:37:00,48.7,29.8,30.11,NNW,332,3.0,5.0,48,0.00,,,0.00,meteohub,2013-05-14 05:37:00,
2013-05-14 01:42:00,48.7,30.4,30.11,WNW,297,1.0,5.0,49,0.00,,,0.00,meteohub,2013-05-14 05:42:00,
2013-05-14 01:47:00,48.6,30.7,30.11,WNW,301,3.0,4.0,50,0.00,,,0.00,meteohub,2013-05-14 05:47:00,
2013-05-14 01:52:00,48.6,30.2,30.11,West,280,4.0,5.0,49,0.00,,,0.00,meteohub,2013-05-14 05:52:00,
2013-05-14 01:57:00,48.6,30.2,30.11,NW,305,1.0,6.0,49,0.00,,,0.00,meteohub,2013-05-14 05:57:00,
2013-05-14 02:02:00,48.4,30.6,30.11,WNW,298,5.0,6.0,50,0.00,,,0.00,meteohub,2013-05-14 06:02:00,
2013-05-14 02:07:00,48.4,30.6,30.11,WNW,283,1.0,6.0,50,0.00,,,0.00,meteohub,2013-05-14 06:07:00,
2013-05-14 02:12:00,48.0,30.7,30.11,WNW,295,2.0,6.0,51,0.00,,,0.00,meteohub,2013-05-14 06:12:00,
2013-05-14 02:17:00,48.0,30.7,30.11,WSW,238,0.0,6.0,51,0.00,,,0.00,meteohub,2013-05-14 06:17:00,
2013-05-14 02:22:00,47.7,30.9,30.11,NNW,342,6.0,6.0,52,0.00,,,0.00,meteohub,2013-05-14 06:22:00,
2013-05-14 02:27:00,47.7,30.9,30.11,NNW,335,1.0,6.0,52,0.00,,,0.00,meteohub,2013-05-14 06:27:00,
2013-05-14 02:32:00,47.7,30.9,30.11,NW,325,2.0,6.0,52,0.00,,,0.00,meteohub,2013-05-14 06:32:00,
2013-05-14 02:37:00,47.5,31.3,30.11,NNW,339,1.0,6.0,53,0.00,,,0.00,meteohub,2013-05-14 06:37:00,
2013-05-14 02:42:00,47.3,31.1,30.11,SSW,210,0.0,4.0,53,0.00,,,0.00,meteohub,2013-05-14 06:42:00,
2013-05-14 02:47:00,47.1,31.3,30.11,NNW,342,1.0,4.0,54,0.00,,,0.00,meteohub,2013-05-14 06:47:00,
2013-05-14 02:52:00,46.9,31.1,30.11,NNW,329,0.0,2.0,54,0.00,,,0.00,meteohub,2013-05-14 06:52:00,
2013-05-14 02:57:00,46.6,31.3,30.11,NNW,341,1.0,2.0,55,0.00,,,0.00,meteohub,2013-05-14 06:57:00,
2013-05-14 03:02:00,46.8,31.5,30.11,WNW,293,0.0,2.0,55,0.00,,,0.00,meteohub,2013-05-14 07:02:00,
2013-05-14 03:07:00,46.8,30.9,30.11,NNW,329,0.0,2.0,54,0.00,,,0.00,meteohub,2013-05-14 07:07:00,
2013-05-14 03:12:00,46.8,31.5,30.11,NW,309,1.0,2.0,55,0.00,,,0.00,meteohub,2013-05-14 07:12:00,
2013-05-14 03:17:00,46.8,31.5,30.11,NW,311,1.0,3.0,55,0.00,,,0.00,meteohub,2013-05-14 07:17:00,
2013-05-14 03:22:00,46.8,31.8,30.11,NNW,334,1.0,3.0,56,0.00,,,0.00,meteohub,2013-05-14 07:22:00,
2013-05-14 03:27:00,46.6,32.2,30.11,WNW,298,1.0,4.0,57,0.00,,,0.00,meteohub,2013-05-14 07:27:00,
2013-05-14 03:32:00,46.4,31.6,30.11,NNW,336,1.0,4.0,56,0.00,,,0.00,meteohub,2013-05-14 07:32:00,
2013-05-14 03:37:00,46.2,32.2,30.12,North,354,0.0,3.0,58,0.00,,,0.00,meteohub,2013-05-14 07:37:00,
2013-05-14 03:42:00,46.0,32.5,30.11,NW,309,0.0,2.0,59,0.00,,,0.00,meteohub,2013-05-14 07:42:00,
2013-05-14 03:47:00,46.0,31.6,30.12,NNW,333,0.0,2.0,57,0.00,,,0.00,meteohub,2013-05-14 07:47:00,
2013-05-14 03:52:00,46.0,31.3,30.12,NW,321,0.0,4.0,56,0.00,,,0.00,meteohub,2013-05-14 07:52:00,
2013-05-14 03:57:00,45.9,32.0,30.12,NW,322,1.0,4.0,58,0.00,,,0.00,meteohub,2013-05-14 07:57:00,
2013-05-14 04:02:00,45.5,31.1,30.12,NNW,339,1.0,4.0,57,0.00,,,0.00,meteohub,2013-05-14 08:02:00,
2013-05-14 04:07:00,45.1,31.3,30.11,NNW,343,2.0,2.0,58,0.00,,,0.00,meteohub,2013-05-14 08:07:00,
2013-05-14 04:12:00,45.3,31.5,30.11,NNW,339,0.0,2.0,58,0.00,,,0.00,meteohub,2013-05-14 08:12:00,
2013-05-14 04:17:00,45.1,31.6,30.11,NNW,329,0.0,2.0,59,0.00,,,0.00,meteohub,2013-05-14 08:17:00,
2013-05-14 04:22:00,45.9,36.0,30.11,NNW,330,0.0,2.0,68,0.00,,,0.00,meteohub,2013-05-14 08:22:00,
2013-05-14 04:27:00,45.7,33.4,30.11,NNW,338,0.0,1.0,62,0.00,,,0.00,meteohub,2013-05-14 08:27:00,
2013-05-14 04:32:00,45.1,31.6,30.12,North,11,0.0,3.0,59,0.00,,,0.00,meteohub,2013-05-14 08:32:00,
2013-05-14 04:37:00,45.0,31.5,30.12,North,359,1.0,3.0,59,0.00,,,0.00,meteohub,2013-05-14 08:37:00,
2013-05-14 04:42:00,45.0,31.5,30.12,ENE,70,1.0,3.0,59,0.00,,,0.00,meteohub,2013-05-14 08:42:00,
2013-05-14 04:47:00,44.8,31.3,30.12,North,5,1.0,3.0,59,0.00,,,0.00,meteohub,2013-05-14 08:47:00,
2013-05-14 04:52:00,45.0,31.1,30.12,NNW,333,1.0,5.0,58,0.00,,,0.00,meteohub,2013-05-14 08:52:00,
2013-05-14 04:57:00,44.8,31.3,30.12,NNW,328,2.0,5.0,59,0.00,,,0.00,meteohub,2013-05-14 08:57:00,
2013-05-14 05:02:00,44.6,31.1,30.12,NNW,328,1.0,5.0,59,0.00,,,0.00,meteohub,2013-05-14 09:02:00,
2013-05-14 05:07:00,44.4,30.9,30.12,NNW,336,1.0,4.0,59,0.00,,,0.00,meteohub,2013-05-14 09:07:00,
2013-05-14 05:12:00,44.2,31.3,30.12,NNW,340,0.0,4.0,60,0.00,,,0.00,meteohub,2013-05-14 09:12:00,
2013-05-14 05:17:00,44.2,30.7,30.12,NW,311,3.0,4.0,59,0.00,,,0.00,meteohub,2013-05-14 09:17:00,
2013-05-14 05:22:00,44.4,30.9,30.12,North,8,0.0,4.0,59,0.00,,,0.00,meteohub,2013-05-14 09:22:00,
2013-05-14 05:27:00,44.2,31.3,30.12,ENE,66,0.0,4.0,60,0.00,,,0.00,meteohub,2013-05-14 09:27:00,
2013-05-14 05:32:00,44.1,31.5,30.12,North,6,0.0,4.0,61,0.00,,,0.00,meteohub,2013-05-14 09:32:00,
2013-05-14 05:37:00,43.9,31.3,30.12,East,84,1.0,4.0,61,0.00,,,0.00,meteohub,2013-05-14 09:37:00,
2013-05-14 05:42:00,43.5,30.9,30.12,NE,44,1.0,1.0,61,0.00,,,0.00,meteohub,2013-05-14 09:42:00,
2013-05-14 05:47:00,43.5,31.3,30.13,ENE,63,0.0,2.0,62,0.00,,,0.00,meteohub,2013-05-14 09:47:00,
2013-05-14 05:52:00,43.5,31.3,30.13,ENE,63,0.0,2.0,62,0.00,,,0.00,meteohub,2013-05-14 09:52:00,
2013-05-14 05:57:00,43.2,30.6,30.13,ENE,64,0.0,1.0,61,0.00,,,0.00,meteohub,2013-05-14 09:57:00,
2013-05-14 06:02:00,43.2,30.6,30.13,NE,54,0.0,1.0,61,0.00,,,0.00,meteohub,2013-05-14 10:02:00,
2013-05-14 06:07:00,43.2,30.6,30.13,ENE,72,1.0,1.0,61,0.00,,,0.00,meteohub,2013-05-14 10:07:00,
2013-05-14 06:12:00,43.2,30.6,30.13,NNW,345,1.0,1.0,61,0.00,,,0.00,meteohub,2013-05-14 10:12:00,
2013-05-14 06:17:00,43.3,30.7,30.14,WNW,298,0.0,2.0,61,0.00,,,0.00,meteohub,2013-05-14 10:17:00,
2013-05-14 06:22:00,43.7,31.1,30.14,NW,304,0.0,2.0,61,0.00,,,0.00,meteohub,2013-05-14 10:22:00,
2013-05-14 06:27:00,44.1,31.5,30.14,West,267,0.0,2.0,61,0.00,,,0.00,meteohub,2013-05-14 10:27:00,
2013-05-14 06:32:00,44.4,31.5,30.15,NNW,330,3.0,3.0,60,0.00,,,0.00,meteohub,2013-05-14 10:32:00,
2013-05-14 06:37:00,44.4,31.5,30.14,NNW,343,4.0,4.0,60,0.00,,,0.00,meteohub,2013-05-14 10:37:00,
2013-05-14 06:42:00,44.4,31.8,30.15,NNE,27,6.0,6.0,61,0.00,,,0.00,meteohub,2013-05-14 10:42:00,
2013-05-14 06:47:00,44.6,32.0,30.15,NNW,330,1.0,5.0,61,0.00,,,0.00,meteohub,2013-05-14 10:47:00,
2013-05-14 06:52:00,44.8,32.2,30.14,NNE,28,0.0,6.0,61,0.00,,,0.00,meteohub,2013-05-14 10:52:00,
2013-05-14 06:57:00,45.0,32.0,30.15,WNW,298,2.0,6.0,60,0.00,,,0.00,meteohub,2013-05-14 10:57:00,
2013-05-14 07:02:00,45.3,31.8,30.15,WNW,294,1.0,3.0,59,0.00,,,0.00,meteohub,2013-05-14 11:02:00,
2013-05-14 07:07:00,45.5,32.0,30.15,NW,326,1.0,3.0,59,0.00,,,0.00,meteohub,2013-05-14 11:07:00,
2013-05-14 07:12:00,45.7,31.8,30.15,NNW,329,3.0,4.0,58,0.00,,,0.00,meteohub,2013-05-14 11:12:00,
2013-05-14 07:17:00,45.9,32.0,30.15,NNE,32,2.0,4.0,58,0.00,,,0.00,meteohub,2013-05-14 11:17:00,
2013-05-14 07:22:00,46.0,32.0,30.15,NNW,328,3.0,4.0,58,0.00,,,0.00,meteohub,2013-05-14 11:22:00,
2013-05-14 07:27:00,46.2,32.2,30.14,NW,318,1.0,4.0,58,0.00,,,0.00,meteohub,2013-05-14 11:27:00,
2013-05-14 07:32:00,46.8,32.7,30.14,North,359,0.0,4.0,58,0.00,,,0.00,meteohub,2013-05-14 11:32:00,
2013-05-14 07:37:00,47.1,31.8,30.14,NW,322,0.0,3.0,55,0.00,,,0.00,meteohub,2013-05-14 11:37:00,
2013-05-14 07:42:00,47.7,31.3,30.14,NW,316,2.0,2.0,53,0.00,,,0.00,meteohub,2013-05-14 11:42:00,
2013-05-14 07:47:00,47.7,30.4,30.14,NNW,342,1.0,2.0,51,0.00,,,0.00,meteohub,2013-05-14 11:47:00,
2013-05-14 07:52:00,47.8,30.6,30.15,NW,324,0.0,3.0,51,0.00,,,0.00,meteohub,2013-05-14 11:52:00,
2013-05-14 07:57:00,48.2,30.4,30.15,NNW,338,1.0,4.0,50,0.00,,,0.00,meteohub,2013-05-14 11:57:00,
2013-05-14 08:02:00,48.4,30.0,30.15,NNE,18,2.0,4.0,49,0.00,,,0.00,meteohub,2013-05-14 12:02:00,
2013-05-14 08:07:00,48.4,30.6,30.15,NE,49,1.0,4.0,50,0.00,,,0.00,meteohub,2013-05-14 12:07:00,
2013-05-14 08:12:00,48.4,29.7,30.15,NNW,342,3.0,4.0,48,0.00,,,0.00,meteohub,2013-05-14 12:12:00,
2013-05-14 08:17:00,48.6,29.8,30.15,NE,35,3.0,5.0,48,0.00,,,0.00,meteohub,2013-05-14 12:17:00,
2013-05-14 08:22:00,49.3,30.4,30.15,NNW,341,2.0,5.0,48,0.00,,,0.00,meteohub,2013-05-14 12:22:00,
2013-05-14 08:27:00,49.5,30.0,30.15,North,358,0.0,4.0,47,0.00,,,0.00,meteohub,2013-05-14 12:27:00,
2013-05-14 08:32:00,50.2,29.7,30.15,NNW,339,1.0,5.0,45,0.00,,,0.00,meteohub,2013-05-14 12:32:00,
2013-05-14 08:37:00,50.5,30.0,30.15,NW,312,2.0,5.0,45,0.00,,,0.00,meteohub,2013-05-14 12:37:00,
2013-05-14 08:42:00,50.5,29.5,30.15,NW,325,0.0,5.0,44,0.00,,,0.00,meteohub,2013-05-14 12:42:00,
2013-05-14 08:48:00,50.9,29.1,30.15,West,274,1.0,7.0,43,0.00,,,0.00,meteohub,2013-05-14 12:48:00,
2013-05-14 08:53:00,51.4,28.6,30.15,NNW,338,1.0,7.0,41,0.00,,,0.00,meteohub,2013-05-14 12:53:00,
2013-05-14 08:58:00,51.6,26.8,30.15,NW,316,1.0,7.0,38,0.00,,,0.00,meteohub,2013-05-14 12:58:00,
2013-05-14 09:03:00,51.4,27.3,30.15,North,11,2.0,8.0,39,0.00,,,0.00,meteohub,2013-05-14 13:03:00,
2013-05-14 09:08:00,52.0,25.2,30.15,NNW,335,2.0,8.0,35,0.00,,,0.00,meteohub,2013-05-14 13:08:00,
2013-05-14 09:13:00,52.0,26.6,30.15,NW,319,3.0,8.0,37,0.00,,,0.00,meteohub,2013-05-14 13:13:00,
2013-05-14 09:18:00,51.8,27.7,30.15,NW,314,5.0,8.0,39,0.00,,,0.00,meteohub,2013-05-14 13:18:00,
2013-05-14 09:23:00,52.2,27.3,30.14,North,9,4.0,10.0,38,0.00,,,0.00,meteohub,2013-05-14 13:23:00,
2013-05-14 09:28:00,52.5,27.7,30.14,NW,321,2.0,10.0,38,0.00,,,0.00,meteohub,2013-05-14 13:28:00,
2013-05-14 09:33:00,52.5,27.7,30.14,NNW,345,3.0,7.0,38,0.00,,,0.00,meteohub,2013-05-14 13:33:00,
2013-05-14 09:38:00,52.5,28.9,30.14,NW,312,6.0,6.0,40,0.00,,,0.00,meteohub,2013-05-14 13:38:00,
2013-05-14 09:43:00,53.1,28.0,30.14,WSW,246,6.0,6.0,38,0.00,,,0.00,meteohub,2013-05-14 13:43:00,
2013-05-14 09:48:00,53.4,28.4,30.14,NNW,335,4.0,7.0,38,0.00,,,0.00,meteohub,2013-05-14 13:48:00,
2013-05-14 09:53:00,53.4,27.9,30.14,NNW,329,9.0,9.0,37,0.00,,,0.00,meteohub,2013-05-14 13:53:00,
2013-05-14 09:58:00,53.1,27.5,30.14,North,0,6.0,10.0,37,0.00,,,0.00,meteohub,2013-05-14 13:58:00,
2013-05-14 10:03:00,52.9,27.3,30.14,NW,318,2.0,10.0,37,0.00,,,0.00,meteohub,2013-05-14 14:03:00,
2013-05-14 10:08:00,53.2,28.2,30.14,NW,311,0.0,10.0,38,0.00,,,0.00,meteohub,2013-05-14 14:08:00,
2013-05-14 10:13:00,54.3,29.3,30.14,NNW,329,1.0,10.0,38,0.00,,,0.00,meteohub,2013-05-14 14:13:00,
2013-05-14 10:18:00,54.9,28.4,30.14,ENE,68,3.0,8.0,36,0.00,,,0.00,meteohub,2013-05-14 14:18:00,
2013-05-14 10:23:00,54.7,29.5,30.14,West,264,1.0,8.0,38,0.00,,,0.00,meteohub,2013-05-14 14:23:00,
2013-05-14 10:28:00,55.0,29.3,30.14,WSW,245,2.0,8.0,37,0.00,,,0.00,meteohub,2013-05-14 14:28:00,
2013-05-14 10:33:00,55.0,29.8,30.14,NNW,328,4.0,9.0,38,0.00,,,0.00,meteohub,2013-05-14 14:33:00,
2013-05-14 10:38:00,55.0,28.6,30.14,West,271,0.0,9.0,36,0.00,,,0.00,meteohub,2013-05-14 14:38:00,
2013-05-14 10:43:00,55.2,28.8,30.14,NNW,338,4.0,9.0,36,0.00,,,0.00,meteohub,2013-05-14 14:43:00,
2013-05-14 10:48:00,55.0,27.9,30.13,SW,233,2.0,9.0,35,0.00,,,0.00,meteohub,2013-05-14 14:48:00,
2013-05-14 10:53:00,56.1,28.8,30.14,SW,225,5.0,9.0,35,0.00,,,0.00,meteohub,2013-05-14 14:53:00,
2013-05-14 10:58:00,55.9,28.8,30.14,WNW,300,2.0,12.0,35,0.00,,,0.00,meteohub,2013-05-14 14:58:00,
2013-05-14 11:03:00,55.4,28.9,30.13,WNW,300,6.0,12.0,36,0.00,,,0.00,meteohub,2013-05-14 15:03:00,
2013-05-14 11:08:00,55.8,29.1,30.13,NW,312,3.0,12.0,36,0.00,,,0.00,meteohub,2013-05-14 15:08:00,
2013-05-14 11:13:00,55.9,29.3,30.13,NW,326,4.0,11.0,36,0.00,,,0.00,meteohub,2013-05-14 15:13:00,
2013-05-14 11:18:00,56.1,30.2,30.12,NNE,33,4.0,9.0,37,0.00,,,0.00,meteohub,2013-05-14 15:18:00,
2013-05-14 11:23:00,58.1,30.6,30.12,NNW,331,2.0,9.0,35,0.00,,,0.00,meteohub,2013-05-14 15:23:00,
2013-05-14 11:28:00,57.9,29.7,30.12,North,358,5.0,9.0,34,0.00,,,0.00,meteohub,2013-05-14 15:28:00,
2013-05-14 11:33:00,57.7,29.5,30.12,SW,225,7.0,7.0,34,0.00,,,0.00,meteohub,2013-05-14 15:33:00,
2013-05-14 11:38:00,57.9,28.9,30.12,WNW,301,5.0,8.0,33,0.00,,,0.00,meteohub,2013-05-14 15:38:00,
2013-05-14 11:44:00,58.5,29.5,30.12,WSW,255,2.0,8.0,33,0.00,,,0.00,meteohub,2013-05-14 15:44:00,
2013-05-14 11:49:00,58.3,29.3,30.12,NNW,340,6.0,8.0,33,0.00,,,0.00,meteohub,2013-05-14 15:49:00,
2013-05-14 11:54:00,59.4,30.2,30.12,WSW,255,2.0,11.0,33,0.00,,,0.00,meteohub,2013-05-14 15:54:00,
2013-05-14 11:59:00,60.1,29.3,30.12,South,186,3.0,11.0,31,0.00,,,0.00,meteohub,2013-05-14 15:59:00,
2013-05-14 12:04:00,60.1,29.3,30.11,South,190,2.0,9.0,31,0.00,,,0.00,meteohub,2013-05-14 16:04:00,
2013-05-14 12:09:00,59.9,30.0,30.10,NNW,329,3.0,11.0,32,0.00,,,0.00,meteohub,2013-05-14 16:09:00,
2013-05-14 12:14:00,59.4,29.5,30.10,NNW,343,3.0,11.0,32,0.00,,,0.00,meteohub,2013-05-14 16:14:00,
2013-05-14 12:19:00,60.1,30.2,30.11,South,188,8.0,11.0,32,0.00,,,0.00,meteohub,2013-05-14 16:19:00,
2013-05-14 12:24:00,59.7,29.8,30.10,NW,307,2.0,11.0,32,0.00,,,0.00,meteohub,2013-05-14 16:24:00,
2013-05-14 12:29:00,60.3,28.8,30.11,NNW,348,6.0,11.0,30,0.00,,,0.00,meteohub,2013-05-14 16:29:00,
2013-05-14 12:34:00,59.9,29.1,30.10,NE,56,3.0,11.0,31,0.00,,,0.00,meteohub,2013-05-14 16:34:00,
2013-05-14 12:39:00,60.1,29.3,30.09,NNW,343,5.0,11.0,31,0.00,,,0.00,meteohub,2013-05-14 16:39:00,
2013-05-14 12:44:00,60.3,30.2,30.09,SW,215,4.0,11.0,32,0.00,,,0.00,meteohub,2013-05-14 16:44:00,
2013-05-14 12:49:00,60.6,30.6,30.09,SW,231,7.0,11.0,32,0.00,,,0.00,meteohub,2013-05-14 16:49:00,
2013-05-14 12:54:00,61.2,31.1,30.10,SW,235,7.0,13.0,32,0.00,,,0.00,meteohub,2013-05-14 16:54:00,
2013-05-14 12:59:00,61.2,30.2,30.09,WSW,240,2.0,13.0,31,0.00,,,0.00,meteohub,2013-05-14 16:59:00,
2013-05-14 13:04:00,62.4,32.2,30.09,SW,226,0.0,13.0,32,0.00,,,0.00,meteohub,2013-05-14 17:04:00,
2013-05-14 13:09:00,62.6,30.7,30.09,WSW,248,3.0,12.0,30,0.00,,,0.00,meteohub,2013-05-14 17:09:00,
2013-05-14 13:14:00,61.7,29.1,30.09,NW,319,4.0,12.0,29,0.00,,,0.00,meteohub,2013-05-14 17:14:00,
2013-05-14 13:19:00,61.2,29.5,30.09,NNW,347,5.0,11.0,30,0.00,,,0.00,meteohub,2013-05-14 17:19:00,
2013-05-14 13:24:00,60.8,29.1,30.08,SW,223,3.0,13.0,30,0.00,,,0.00,meteohub,2013-05-14 17:24:00,
2013-05-14 13:29:00,61.9,31.6,30.07,SSW,198,4.0,14.0,32,0.00,,,0.00,meteohub,2013-05-14 17:29:00,
2013-05-14 13:34:00,62.4,31.5,30.08,SSW,200,8.0,14.0,31,0.00,,,0.00,meteohub,2013-05-14 17:34:00,
2013-05-14 13:39:00,63.0,31.8,30.08,NNE,30,2.0,14.0,31,0.00,,,0.00,meteohub,2013-05-14 17:39:00,
2013-05-14 13:44:00,63.3,31.3,30.07,NNE,27,3.0,9.0,30,0.00,,,0.00,meteohub,2013-05-14 17:44:00,
2013-05-14 13:49:00,63.0,31.1,30.07,NNW,340,1.0,9.0,30,0.00,,,0.00,meteohub,2013-05-14 17:49:00,
2013-05-14 13:54:00,63.0,31.1,30.06,NW,307,5.0,9.0,30,0.00,,,0.00,meteohub,2013-05-14 17:54:00,
2013-05-14 13:59:00,62.8,30.0,30.06,WNW,297,6.0,13.0,29,0.00,,,0.00,meteohub,2013-05-14 17:59:00,
2013-05-14 14:04:00,63.0,30.2,30.06,NNW,338,5.0,13.0,29,0.00,,,0.00,meteohub,2013-05-14 18:04:00,
2013-05-14 14:09:00,63.0,30.2,30.06,WNW,300,2.0,13.0,29,0.00,,,0.00,meteohub,2013-05-14 18:09:00,
2013-05-14 14:14:00,63.3,30.6,30.05,SSW,212,6.0,11.0,29,0.00,,,0.00,meteohub,2013-05-14 18:14:00,
2013-05-14 14:19:00,64.0,31.1,30.05,North,356,5.0,11.0,29,0.00,,,0.00,meteohub,2013-05-14 18:19:00,
2013-05-14 14:24:00,63.9,31.8,30.06,NNW,331,5.0,11.0,30,0.00,,,0.00,meteohub,2013-05-14 18:24:00,
2013-05-14 14:29:00,64.6,31.6,30.06,West,276,1.0,10.0,29,0.00,,,0.00,meteohub,2013-05-14 18:29:00,
2013-05-14 14:34:00,64.9,30.2,30.06,SSW,208,4.0,12.0,27,0.00,,,0.00,meteohub,2013-05-14 18:34:00,
2013-05-14 14:39:00,65.1,30.4,30.05,North,349,2.0,12.0,27,0.00,,,0.00,meteohub,2013-05-14 18:39:00,
2013-05-14 14:44:00,65.7,31.6,30.05,WSW,250,5.0,12.0,28,0.00,,,0.00,meteohub,2013-05-14 18:44:00,
2013-05-14 14:49:00,64.6,29.8,30.05,North,8,5.0,9.0,27,0.00,,,0.00,meteohub,2013-05-14 18:49:00,
2013-05-14 14:54:00,64.6,30.7,30.05,North,352,3.0,11.0,28,0.00,,,0.00,meteohub,2013-05-14 18:54:00,
2013-05-14 14:59:00,65.1,30.4,30.05,WNW,287,3.0,11.0,27,0.00,,,0.00,meteohub,2013-05-14 18:59:00,
2013-05-14 15:04:00,65.7,30.7,30.04,West,270,5.0,11.0,27,0.00,,,0.00,meteohub,2013-05-14 19:04:00,
2013-05-14 15:09:00,65.3,30.4,30.04,WNW,292,3.0,7.0,27,0.00,,,0.00,meteohub,2013-05-14 19:09:00,
2013-05-14 15:14:00,65.5,30.6,30.05,WNW,303,2.0,7.0,27,0.00,,,0.00,meteohub,2013-05-14 19:14:00,
2013-05-14 15:19:00,66.0,31.1,30.04,SW,229,4.0,7.0,27,0.00,,,0.00,meteohub,2013-05-14 19:19:00,
2013-05-14 15:24:00,66.6,30.6,30.04,WNW,297,4.0,9.0,26,0.00,,,0.00,meteohub,2013-05-14 19:24:00,
2013-05-14 15:29:00,65.8,30.9,30.04,WSW,240,2.0,9.0,27,0.00,,,0.00,meteohub,2013-05-14 19:29:00,
2013-05-14 15:34:00,66.4,31.5,30.04,NNE,33,1.0,10.0,27,0.00,,,0.00,meteohub,2013-05-14 19:34:00,
2013-05-14 15:39:00,66.4,32.4,30.04,NW,311,3.0,10.0,28,0.00,,,0.00,meteohub,2013-05-14 19:39:00,
2013-05-14 15:44:00,65.8,31.8,30.04,NW,305,3.0,10.0,28,0.00,,,0.00,meteohub,2013-05-14 19:44:00,
2013-05-14 15:49:00,66.4,32.4,30.04,WSW,238,2.0,9.0,28,0.00,,,0.00,meteohub,2013-05-14 19:49:00,
2013-05-14 15:54:00,66.6,32.4,30.04,NW,321,3.0,7.0,28,0.00,,,0.00,meteohub,2013-05-14 19:54:00,
2013-05-14 15:59:00,65.5,31.5,30.03,NW,312,3.0,7.0,28,0.00,,,0.00,meteohub,2013-05-14 19:59:00,
2013-05-14 16:04:00,65.1,30.4,30.03,NNW,343,3.0,9.0,27,0.00,,,0.00,meteohub,2013-05-14 20:04:00,
2013-05-14 16:09:00,64.8,32.5,30.02,SW,224,2.0,9.0,30,0.00,,,0.00,meteohub,2013-05-14 20:09:00,
2013-05-14 16:14:00,64.8,31.8,30.02,SW,221,1.0,9.0,29,0.00,,,0.00,meteohub,2013-05-14 20:14:00,
2013-05-14 16:19:00,64.6,31.6,30.02,North,353,1.0,8.0,29,0.00,,,0.00,meteohub,2013-05-14 20:19:00,
2013-05-14 16:24:00,64.2,31.3,30.02,West,273,1.0,8.0,29,0.00,,,0.00,meteohub,2013-05-14 20:24:00,
2013-05-14 16:29:00,64.0,32.0,30.01,NNW,347,1.0,6.0,30,0.00,,,0.00,meteohub,2013-05-14 20:29:00,
2013-05-14 16:34:00,64.4,31.5,30.02,WNW,294,1.0,5.0,29,0.00,,,0.00,meteohub,2013-05-14 20:34:00,
2013-05-14 16:39:00,64.2,31.3,30.02,West,263,2.0,5.0,29,0.00,,,0.00,meteohub,2013-05-14 20:39:00,
2013-05-14 16:44:00,64.0,32.0,30.02,NW,316,2.0,6.0,30,0.00,,,0.00,meteohub,2013-05-14 20:44:00,
2013-05-14 16:49:00,63.9,32.7,30.02,SE,141,0.0,6.0,31,0.00,,,0.00,meteohub,2013-05-14 20:49:00,
2013-05-14 16:54:00,64.0,31.1,30.02,NW,323,4.0,7.0,29,0.00,,,0.00,meteohub,2013-05-14 20:54:00,
2013-05-14 16:59:00,63.9,31.8,30.02,NNW,333,3.0,7.0,30,0.00,,,0.00,meteohub,2013-05-14 20:59:00,
2013-05-14 17:04:00,63.7,31.6,30.02,WNW,296,3.0,7.0,30,0.00,,,0.00,meteohub,2013-05-14 21:04:00,
2013-05-14 17:09:00,63.7,31.6,30.01,NNW,346,3.0,6.0,30,0.00,,,0.00,meteohub,2013-05-14 21:09:00,
2013-05-14 17:14:00,63.7,31.6,30.01,NW,316,2.0,6.0,30,0.00,,,0.00,meteohub,2013-05-14 21:14:00,
2013-05-14 17:19:00,63.7,31.6,30.01,NNW,340,3.0,6.0,30,0.00,,,0.00,meteohub,2013-05-14 21:19:00,
2013-05-14 17:24:00,63.7,32.5,30.01,NNW,345,1.0,5.0,31,0.00,,,0.00,meteohub,2013-05-14 21:24:00,
2013-05-14 17:29:00,64.0,32.7,30.01,NNW,338,2.0,7.0,31,0.00,,,0.00,meteohub,2013-05-14 21:29:00,
2013-05-14 17:34:00,64.0,32.7,30.01,West,263,2.0,7.0,31,0.00,,,0.00,meteohub,2013-05-14 21:34:00,
2013-05-14 17:39:00,64.2,32.2,30.00,North,356,1.0,6.0,30,0.00,,,0.00,meteohub,2013-05-14 21:39:00,
2013-05-14 17:44:00,64.4,33.1,30.00,NNW,340,1.0,5.0,31,0.00,,,0.00,meteohub,2013-05-14 21:44:00,
2013-05-14 17:49:00,64.2,32.2,30.00,NW,304,0.0,5.0,30,0.00,,,0.00,meteohub,2013-05-14 21:49:00,
2013-05-14 17:54:00,64.2,32.2,30.01,WNW,285,5.0,5.0,30,0.00,,,0.00,meteohub,2013-05-14 21:54:00,
2013-05-14 17:59:00,64.0,32.7,30.00,North,352,3.0,5.0,31,0.00,,,0.00,meteohub,2013-05-14 21:59:00,
2013-05-14 18:04:00,64.2,33.8,30.00,SSE,149,0.0,5.0,32,0.00,,,0.00,meteohub,2013-05-14 22:04:00,
2013-05-14 18:09:00,64.2,35.2,30.00,SSW,211,1.0,5.0,34,0.00,,,0.00,meteohub,2013-05-14 22:09:00,
2013-05-14 18:14:00,64.4,34.0,30.00,South,184,2.0,4.0,32,0.00,,,0.00,meteohub,2013-05-14 22:14:00,
2013-05-14 18:19:00,64.0,32.7,30.00,WSW,255,1.0,4.0,31,0.00,,,0.00,meteohub,2013-05-14 22:19:00,
2013-05-14 18:24:00,64.2,33.8,30.00,SE,130,3.0,5.0,32,0.00,,,0.00,meteohub,2013-05-14 22:24:00,
2013-05-14 18:29:00,64.0,32.7,30.00,SSW,209,0.0,5.0,31,0.00,,,0.00,meteohub,2013-05-14 22:29:00,
2013-05-14 18:34:00,63.9,33.4,30.00,ESE,123,1.0,6.0,32,0.00,,,0.00,meteohub,2013-05-14 22:34:00,
2013-05-14 18:40:00,63.9,32.7,30.01,SE,139,2.0,6.0,31,0.00,,,0.00,meteohub,2013-05-14 22:40:00,
2013-05-14 18:45:00,63.7,33.3,30.00,ESE,118,0.0,5.0,32,0.00,,,0.00,meteohub,2013-05-14 22:45:00,
2013-05-14 18:50:00,63.7,34.0,30.00,SE,138,1.0,3.0,33,0.00,,,0.00,meteohub,2013-05-14 22:50:00,
2013-05-14 18:55:00,63.7,34.0,30.00,SSE,160,1.0,3.0,33,0.00,,,0.00,meteohub,2013-05-14 22:55:00,
2013-05-14 19:00:00,63.5,33.1,30.00,SSE,155,0.0,3.0,32,0.00,,,0.00,meteohub,2013-05-14 23:00:00,
2013-05-14 19:05:00,63.5,33.8,30.00,SE,125,1.0,5.0,33,0.00,,,0.00,meteohub,2013-05-14 23:05:00,
2013-05-14 19:10:00,63.1,34.3,30.00,East,91,0.0,5.0,34,0.00,,,0.00,meteohub,2013-05-14 23:10:00,
2013-05-14 19:15:00,63.1,34.3,30.00,SSE,155,3.0,5.0,34,0.00,,,0.00,meteohub,2013-05-14 23:15:00,
2013-05-14 19:20:00,63.1,33.6,30.00,SE,130,1.0,5.0,33,0.00,,,0.00,meteohub,2013-05-14 23:20:00,
2013-05-14 19:25:00,63.1,34.3,29.99,SE,131,2.0,5.0,34,0.00,,,0.00,meteohub,2013-05-14 23:25:00,
2013-05-14 19:30:00,63.1,34.3,29.99,SSE,155,1.0,5.0,34,0.00,,,0.00,meteohub,2013-05-14 23:30:00,
2013-05-14 19:35:00,63.1,33.6,29.99,SE,131,2.0,5.0,33,0.00,,,0.00,meteohub,2013-05-14 23:35:00,
2013-05-14 19:40:00,63.0,34.2,29.99,SE,135,0.0,5.0,34,0.00,,,0.00,meteohub,2013-05-14 23:40:00,
2013-05-14 19:45:00,63.0,34.2,29.99,SE,145,4.0,5.0,34,0.00,,,0.00,meteohub,2013-05-14 23:45:00,
2013-05-14 19:50:00,62.8,34.0,29.99,SE,134,2.0,5.0,34,0.00,,,0.00,meteohub,2013-05-14 23:50:00,
2013-05-14 19:55:00,62.8,34.7,29.99,SE,138,0.0,5.0,35,0.00,,,0.00,meteohub,2013-05-14 23:55:00,
2013-05-14 20:00:00,62.8,34.7,29.99,SSE,154,0.0,5.0,35,0.00,,,0.00,meteohub,2013-05-15 00:00:00,
2013-05-14 20:05:00,62.6,35.2,29.98,SE,131,1.0,5.0,36,0.00,,,0.00,meteohub,2013-05-15 00:05:00,
2013-05-14 20:10:00,62.4,35.1,29.98,ESE,113,2.0,5.0,36,0.00,,,0.00,meteohub,2013-05-15 00:10:00,
2013-05-14 20:15:00,62.2,35.6,29.98,ESE,115,3.0,6.0,37,0.00,,,0.00,meteohub,2013-05-15 00:15:00,
2013-05-14 20:20:00,62.1,35.4,29.98,SSE,149,1.0,6.0,37,0.00,,,0.00,meteohub,2013-05-15 00:20:00,
2013-05-14 20:25:00,62.1,36.1,29.99,NNW,346,0.0,6.0,38,0.00,,,0.00,meteohub,2013-05-15 00:25:00,
2013-05-14 20:30:00,61.3,36.9,29.98,SW,235,0.0,6.0,40,0.00,,,0.00,meteohub,2013-05-15 00:30:00,
2013-05-14 20:35:00,61.0,37.0,29.99,SSE,153,1.0,4.0,41,0.00,,,0.00,meteohub,2013-05-15 00:35:00,
2013-05-14 20:40:00,60.6,36.9,29.98,ENE,71,3.0,4.0,41,0.00,,,0.00,meteohub,2013-05-15 00:40:00,
2013-05-14 20:45:00,60.4,37.2,29.99,North,356,0.0,4.0,42,0.00,,,0.00,meteohub,2013-05-15 00:45:00,
2013-05-14 20:50:00,60.3,37.8,29.99,NE,37,1.0,5.0,43,0.00,,,0.00,meteohub,2013-05-15 00:50:00,
2013-05-14 20:55:00,60.1,38.7,29.99,SE,146,1.0,5.0,45,0.00,,,0.00,meteohub,2013-05-15 00:55:00,
2013-05-14 21:00:00,60.1,38.7,29.99,ESE,108,0.0,5.0,45,0.00,,,0.00,meteohub,2013-05-15 01:00:00,
2013-05-14 21:05:00,60.1,38.7,29.99,NNE,15,1.0,3.0,45,0.00,,,0.00,meteohub,2013-05-15 01:05:00,
2013-05-14 21:10:00,60.1,39.2,30.00,ESE,117,0.0,2.0,46,0.00,,,0.00,meteohub,2013-05-15 01:10:00,
2013-05-14 21:15:00,59.9,39.0,30.00,SSE,162,0.0,2.0,46,0.00,,,0.00,meteohub,2013-05-15 01:15:00,
2013-05-14 21:20:00,59.9,39.6,30.00,NNE,29,0.0,3.0,47,0.00,,,0.00,meteohub,2013-05-15 01:20:00,
2013-05-14 21:25:00,59.7,39.9,30.00,SW,221,1.0,3.0,48,0.00,,,0.00,meteohub,2013-05-15 01:25:00,
2013-05-14 21:30:00,59.5,40.8,30.01,SSE,150,0.0,3.0,50,0.00,,,0.00,meteohub,2013-05-15 01:30:00,
2013-05-14 21:35:00,59.4,40.3,30.01,NNE,25,1.0,2.0,49,0.00,,,0.00,meteohub,2013-05-15 01:35:00,
2013-05-14 21:40:00,59.4,40.6,30.01,SE,135,0.0,2.0,50,0.00,,,0.00,meteohub,2013-05-15 01:40:00,
2013-05-14 21:45:00,59.4,40.3,30.01,NE,46,1.0,3.0,49,0.00,,,0.00,meteohub,2013-05-15 01:45:00,
2013-05-14 21:50:00,59.4,40.6,30.01,NE,46,0.0,3.0,50,0.00,,,0.00,meteohub,2013-05-15 01:50:00,
2013-05-14 21:55:00,59.2,40.6,30.01,NE,42,0.0,2.0,50,0.00,,,0.00,meteohub,2013-05-15 01:55:00,
2013-05-14 22:00:00,59.2,41.0,30.01,SSE,165,0.0,2.0,51,0.00,,,0.00,meteohub,2013-05-15 02:00:00,
2013-05-14 22:05:00,59.4,41.2,30.01,NE,37,0.0,2.0,51,0.00,,,0.00,meteohub,2013-05-15 02:05:00,
2013-05-14 22:09:00,59.4,41.7,30.01,SE,146,2.0,2.0,52,0.00,,,0.00,meteohub,2013-05-15 02:09:00,
2013-05-14 22:14:00,59.4,41.2,30.01,SE,138,0.0,2.0,51,0.00,,,0.00,meteohub,2013-05-15 02:14:00,
2013-05-14 22:20:00,59.4,41.2,30.01,SSE,163,5.0,5.0,51,0.00,,,0.00,meteohub,2013-05-15 02:20:00,
2013-05-14 22:25:00,59.4,40.6,30.01,SE,124,1.0,2.0,50,0.00,,,0.00,meteohub,2013-05-15 02:25:00,
2013-05-14 22:30:00,59.4,40.6,30.00,SSE,158,2.0,7.0,50,0.00,,,0.00,meteohub,2013-05-15 02:30:00,
2013-05-14 22:35:00,59.4,40.6,30.00,SE,130,2.0,7.0,50,0.00,,,0.00,meteohub,2013-05-15 02:35:00,
2013-05-14 22:40:00,59.4,40.6,30.00,SSE,148,0.0,6.0,50,0.00,,,0.00,meteohub,2013-05-15 02:40:00,
2013-05-14 22:45:00,59.4,41.2,30.00,SE,127,1.0,8.0,51,0.00,,,0.00,meteohub,2013-05-15 02:45:00,
2013-05-14 22:50:00,59.4,41.7,30.00,SE,132,0.0,8.0,52,0.00,,,0.00,meteohub,2013-05-15 02:50:00,
2013-05-14 22:55:00,59.4,42.3,30.00,SSE,148,0.0,8.0,53,0.00,,,0.00,meteohub,2013-05-15 02:55:00,
2013-05-14 23:00:00,59.4,41.7,29.99,SSE,150,3.0,5.0,52,0.00,,,0.00,meteohub,2013-05-15 03:00:00,
2013-05-14 23:05:00,59.2,41.5,29.99,SE,131,0.0,4.0,52,0.00,,,0.00,meteohub,2013-05-15 03:05:00,
2013-05-14 23:10:00,59.2,42.1,30.00,SE,138,1.0,3.0,53,0.00,,,0.00,meteohub,2013-05-15 03:10:00,
2013-05-14 23:15:00,59.2,41.0,29.99,ESE,114,1.0,6.0,51,0.00,,,0.00,meteohub,2013-05-15 03:15:00,
2013-05-14 23:20:00,59.2,41.0,29.99,SE,141,2.0,6.0,51,0.00,,,0.00,meteohub,2013-05-15 03:20:00,
2013-05-14 23:25:00,59.2,41.5,29.99,SE,133,1.0,6.0,52,0.00,,,0.00,meteohub,2013-05-15 03:25:00,
2013-05-14 23:30:00,59.2,41.0,29.99,WSW,248,4.0,5.0,51,0.00,,,0.00,meteohub,2013-05-15 03:30:00,
2013-05-14 23:35:00,59.2,41.5,29.99,SSW,205,2.0,5.0,52,0.00,,,0.00,meteohub,2013-05-15 03:35:00,
2013-05-14 23:40:00,59.4,41.2,29.99,South,174,2.0,5.0,51,0.00,,,0.00,meteohub,2013-05-15 03:40:00,
2013-05-14 23:45:00,59.2,41.0,29.99,SE,134,4.0,5.0,51,0.00,,,0.00,meteohub,2013-05-15 03:45:00,
2013-05-14 23:50:00,59.2,41.0,29.99,SE,124,0.0,5.0,51,0.00,,,0.00,meteohub,2013-05-15 03:50:00,
2013-05-14 23:55:00,59.2,41.5,29.99,SSE,158,2.0,5.0,52,0.00,,,0.00,meteohub,2013-05-15 03:55:00,